,,Stat6,,Stat2,,Stat8,,Stat9,,Stat10,,Wind1,,Wind1,
time,status,PA1M_AVG,status,PR1M_SUM,status,RH1M_AVG,status,SR1M_AVG,status,TA1M_AVG,status,W1dAve1m,status,W1sAve1m,
2004-08-25, 00:00:00,VALID,919.678,VALID,0,VALID,100,VALID,0,VALID,19.5773,VALID,96,VALID,1.1627,
2004-08-25, 00:01:00,VALID,919.631,VALID,0,VALID,99.9781,VALID,0,VALID,19.5194,VALID,3,VALID,1.26395,
2004-08-25, 00:02:00,VALID,919.627,VALID,0,VALID,100,VALID,0,VALID,19.5033,VALID,19,VALID,1.23892,
2004-08-25, 00:03:00,VALID,919.595,VALID,0,VALID,100,VALID,0,VALID,19.5063,VALID,11,VALID,1.39044,
2004-08-25, 00:04:00,VALID,919.566,VALID,0,VALID,100,VALID,-0.0169808,VALID,19.5256,VALID,13,VALID,1.2593,
2004-08-25, 00:05:00,VALID,919.529,VALID,0,VALID,100,VALID,-0.0169808,VALID,19.5259,VALID,19,VALID,1.16025,
2004-08-25, 00:06:00,VALID,919.506,VALID,0,VALID,100,VALID,0,VALID,19.516,VALID,35,VALID,1.31715,
2004-08-25, 00:07:00,VALID,919.48,VALID,0,VALID,100,VALID,0,VALID,19.5155,VALID,14,VALID,1.62314,
2004-08-25, 00:08:00,VALID,919.458,VALID,0,VALID,100,VALID,-0.0339617,VALID,19.5256,VALID,6,VALID,2.20276,
2004-08-25, 00:09:00,VALID,919.458,VALID,0,VALID,99.9692,VALID,0,VALID,19.4737,VALID,16,VALID,1.50893,
2004-08-25, 00:10:00,VALID,919.457,VALID,0,VALID,100,VALID,0.0169808,VALID,19.4576,VALID,22,VALID,1.88802,
2004-08-25, 00:11:00,VALID,919.468,VALID,0,VALID,100,VALID,-0.0509425,VALID,19.4874,VALID,5,VALID,1.14081,
2004-08-25, 00:12:00,VALID,919.438,VALID,0,VALID,100,VALID,-0.0339617,VALID,19.4844,VALID,18,VALID,2.06764,
2004-08-25, 00:13:00,VALID,919.433,VALID,0,VALID,99.9814,VALID,0,VALID,19.4546,VALID,17,VALID,1.25957,
2004-08-25, 00:14:00,VALID,919.412,VALID,0,VALID,99.9201,VALID,-0.0169808,VALID,19.4226,VALID,226,VALID,0.627907,
2004-08-25, 00:15:00,VALID,919.414,VALID,0,VALID,99.9189,VALID,-0.0169808,VALID,19.4226,VALID,35,VALID,1.2178,
2004-08-25, 00:16:00,VALID,919.384,VALID,0,VALID,99.8985,VALID,-0.0339617,VALID,19.3933,VALID,21,VALID,2.0158,
2004-08-25, 00:17:00,VALID,919.354,VALID,0,VALID,99.9341,VALID,-0.0509425,VALID,19.4032,VALID,27,VALID,1.4177,
2004-08-25, 00:18:00,VALID,919.318,VALID,0,VALID,99.9494,VALID,-0.0169808,VALID,19.4062,VALID,25,VALID,1.85324,
2004-08-25, 00:19:00,VALID,919.279,VALID,0,VALID,99.9456,VALID,0,VALID,19.4193,VALID,23,VALID,2.01426,
2004-08-25, 00:20:00,VALID,919.263,VALID,0,VALID,99.9468,VALID,-0.0169808,VALID,19.4159,VALID,23,VALID,1.45017,
2004-08-25, 00:21:00,VALID,919.236,VALID,0,VALID,99.929,VALID,0,VALID,19.4129,VALID,18,VALID,1.3105,
2004-08-25, 00:22:00,VALID,919.191,VALID,0,VALID,99.9163,VALID,-0.0169808,VALID,19.4126,VALID,22,VALID,1.73147,
2004-08-25, 00:23:00,VALID,919.167,VALID,0,VALID,99.8349,VALID,0,VALID,19.4059,VALID,21,VALID,1.77071,
2004-08-25, 00:24:00,VALID,919.143,VALID,0,VALID,99.7879,VALID,-0.0169808,VALID,19.4002,VALID,22,VALID,1.77497,
2004-08-25, 00:25:00,VALID,919.118,VALID,0,VALID,99.8006,VALID,0,VALID,19.3898,VALID,13,VALID,1.97507,
2004-08-25, 00:26:00,VALID,919.096,VALID,0,VALID,99.7879,VALID,-0.0169808,VALID,19.3776,VALID,20,VALID,2.12101,
2004-08-25, 00:27:00,VALID,919.102,VALID,0,VALID,99.8248,VALID,0.0169808,VALID,19.3645,VALID,24,VALID,2.33501,
2004-08-25, 00:28:00,VALID,919.122,VALID,0,VALID,99.8744,VALID,0,VALID,19.3776,VALID,23,VALID,1.92969,
2004-08-25, 00:29:00,VALID,919.122,VALID,0,VALID,99.8184,VALID,0,VALID,19.3813,VALID,13,VALID,1.45792,
2004-08-25, 00:30:00,VALID,919.119,VALID,0,VALID,99.7892,VALID,-0.0169808,VALID,19.3553,VALID,20,VALID,1.49645,
2004-08-25, 00:31:00,VALID,919.099,VALID,0,VALID,99.6824,VALID,0,VALID,19.3354,VALID,15,VALID,1.52515,
2004-08-25, 00:32:00,VALID,919.086,VALID,0,VALID,99.7943,VALID,-0.0169808,VALID,19.3488,VALID,21,VALID,0.784624,
2004-08-25, 00:33:00,VALID,919.084,VALID,0,VALID,99.7879,VALID,0,VALID,19.352,VALID,359,VALID,0.321456,
2004-08-25, 00:34:00,VALID,919.042,VALID,0,VALID,99.793,VALID,-0.0339617,VALID,19.3456,VALID,23,VALID,1.38895,
2004-08-25, 00:35:00,VALID,919.045,VALID,0,VALID,99.896,VALID,-0.0509425,VALID,19.3617,VALID,17,VALID,1.04573,
2004-08-25, 00:36:00,VALID,919.044,VALID,0,VALID,99.8922,VALID,-0.0169808,VALID,19.3679,VALID,18,VALID,0.534412,
2004-08-25, 00:37:00,VALID,919.03,VALID,0,VALID,99.826,VALID,-0.0339617,VALID,19.3486,VALID,13,VALID,1.09648,
2004-08-25, 00:38:00,VALID,919.032,VALID,0,VALID,99.8578,VALID,-0.0169808,VALID,19.358,VALID,7,VALID,0.909884,
2004-08-25, 00:39:00,VALID,919.008,VALID,0,VALID,99.826,VALID,-0.0339617,VALID,19.3483,VALID,360,VALID,1.12845,
2004-08-25, 00:40:00,VALID,918.987,VALID,0,VALID,99.8795,VALID,-0.0339617,VALID,19.3458,VALID,15,VALID,1.29459,
2004-08-25, 00:41:00,VALID,919.003,VALID,0,VALID,99.9278,VALID,0,VALID,19.3615,VALID,10,VALID,1.87607,
2004-08-25, 00:42:00,VALID,919.018,VALID,0,VALID,100,VALID,-0.0339617,VALID,19.3875,VALID,32,VALID,1.02634,
2004-08-25, 00:43:00,VALID,919.021,VALID,0,VALID,100,VALID,-0.0509425,VALID,19.4037,VALID,27,VALID,0.407393,
2004-08-25, 00:44:00,VALID,919.046,VALID,0,VALID,100,VALID,0,VALID,19.4072,VALID,27,VALID,1.00347,
2004-08-25, 00:45:00,VALID,919.067,VALID,0,VALID,100,VALID,-0.0169808,VALID,19.4037,VALID,38,VALID,0.724712,
2004-08-25, 00:46:00,VALID,919.084,VALID,0,VALID,100,VALID,0.0169808,VALID,19.4168,VALID,49,VALID,0.853609,
2004-08-25, 00:47:00,VALID,919.115,VALID,0,VALID,100,VALID,-0.0339617,VALID,19.4263,VALID,27,VALID,0.87862,
2004-08-25, 00:48:00,VALID,919.107,VALID,0,VALID,100,VALID,-0.0339617,VALID,19.4325,VALID,354,VALID,0.305078,
2004-08-25, 00:49:00,VALID,919.103,VALID,0,VALID,100,VALID,0,VALID,19.4556,VALID,339,VALID,0.656613,
2004-08-25, 00:50:00,VALID,919.098,VALID,0,VALID,100,VALID,-0.0169808,VALID,19.4588,VALID,65,VALID,0.637195,
2004-08-25, 00:51:00,VALID,919.108,VALID,0,VALID,100,VALID,-0.0169808,VALID,19.4648,VALID,356,VALID,0.772837,
2004-08-25, 00:52:00,VALID,919.108,VALID,0,VALID,100,VALID,0,VALID,19.4842,VALID,3,VALID,0.350883,
2004-08-25, 00:53:00,VALID,919.092,VALID,0,VALID,100,VALID,-0.0169808,VALID,19.4745,VALID,285,VALID,0.701637,
2004-08-25, 00:54:00,VALID,919.113,VALID,0,VALID,100,VALID,0,VALID,19.4648,VALID,348,VALID,0.355569,
2004-08-25, 00:55:00,VALID,919.093,VALID,0,VALID,100,VALID,-0.0169808,VALID,19.4616,VALID,16,VALID,0.618278,
2004-08-25, 00:56:00,VALID,919.076,VALID,0,VALID,100,VALID,-0.0509425,VALID,19.4812,VALID,19,VALID,1.21708,
2004-08-25, 00:57:00,VALID,919.081,VALID,0,VALID,100,VALID,-0.0339617,VALID,19.4943,VALID,26,VALID,1.12295,
2004-08-25, 00:58:00,VALID,919.068,VALID,0,VALID,100,VALID,-0.0509425,VALID,19.4844,VALID,359,VALID,0.692023,
2004-08-25, 00:59:00,VALID,919.05,VALID,0,VALID,100,VALID,-0.0509425,VALID,19.4876,VALID,13,VALID,1.13186,
2004-08-25, 01:00:00,VALID,919.057,VALID,0,VALID,100,VALID,-0.0509425,VALID,19.4879,VALID,18,VALID,0.685764,
2004-08-25, 01:01:00,VALID,919.05,VALID,0,VALID,100,VALID,-0.0169808,VALID,19.4779,VALID,25,VALID,1.27586,
2004-08-25, 01:02:00,VALID,919.046,VALID,0,VALID,100,VALID,-0.0679233,VALID,19.475,VALID,4,VALID,0.796354,
2004-08-25, 01:03:00,VALID,919.044,VALID,0,VALID,100,VALID,-0.0169808,VALID,19.4814,VALID,54,VALID,0.200149,
2004-08-25, 01:04:00,VALID,919.044,VALID,0,VALID,100,VALID,0,VALID,19.4715,VALID,31,VALID,0.507292,
2004-08-25, 01:05:00,VALID,919.009,VALID,0,VALID,100,VALID,-0.0339617,VALID,19.4812,VALID,36,VALID,1.21522,
2004-08-25, 01:06:00,VALID,919.001,VALID,0,VALID,99.9875,VALID,-0.0339617,VALID,19.4578,VALID,349,VALID,0.908913,
2004-08-25, 01:07:00,VALID,919,VALID,0,VALID,99.8934,VALID,-0.0169808,VALID,19.4387,VALID,17,VALID,1.47692,
2004-08-25, 01:08:00,VALID,919.012,VALID,0,VALID,99.9621,VALID,-0.0509425,VALID,19.4424,VALID,289,VALID,0.60556,
2004-08-25, 01:09:00,VALID,919.019,VALID,0,VALID,99.9379,VALID,-0.0339617,VALID,19.4457,VALID,110,VALID,0.447545,
2004-08-25, 01:10:00,VALID,919.009,VALID,0,VALID,99.9733,VALID,-0.0849042,VALID,19.4591,VALID,49,VALID,0.424352,
2004-08-25, 01:11:00,VALID,919.001,VALID,0,VALID,99.998,VALID,-0.0679233,VALID,19.4623,VALID,10,VALID,0.870722,
2004-08-25, 01:12:00,VALID,918.981,VALID,0,VALID,99.999,VALID,-0.0849042,VALID,19.4618,VALID,15,VALID,0.914063,
2004-08-25, 01:13:00,VALID,918.961,VALID,0,VALID,100,VALID,-0.0509425,VALID,19.465,VALID,21,VALID,1.24647,
2004-08-25, 01:14:00,VALID,918.944,VALID,0,VALID,99.9916,VALID,-0.0679233,VALID,19.4787,VALID,7,VALID,1.873,
2004-08-25, 01:15:00,VALID,918.941,VALID,0,VALID,99.9807,VALID,-0.0849042,VALID,19.4653,VALID,10,VALID,0.893164,
2004-08-25, 01:16:00,VALID,918.936,VALID,0,VALID,99.9329,VALID,-0.101885,VALID,19.4524,VALID,25,VALID,1.44648,
2004-08-25, 01:17:00,VALID,918.922,VALID,0,VALID,99.9682,VALID,-0.101885,VALID,19.4588,VALID,18,VALID,1.33984,
2004-08-25, 01:18:00,VALID,918.928,VALID,0,VALID,100,VALID,-0.101885,VALID,19.4916,VALID,27,VALID,0.781822,
2004-08-25, 01:19:00,VALID,918.924,VALID,0,VALID,99.9967,VALID,-0.101885,VALID,19.4688,VALID,19,VALID,0.882457,
2004-08-25, 01:20:00,VALID,918.924,VALID,0,VALID,99.9952,VALID,-0.0849042,VALID,19.4755,VALID,360,VALID,0.490039,
2004-08-25, 01:21:00,VALID,918.909,VALID,0,VALID,99.9748,VALID,-0.0679233,VALID,19.4688,VALID,32,VALID,0.705221,
2004-08-25, 01:22:00,VALID,918.891,VALID,0,VALID,99.971,VALID,-0.0679233,VALID,19.4623,VALID,30,VALID,1.09286,
2004-08-25, 01:23:00,VALID,918.877,VALID,0,VALID,99.9735,VALID,-0.0849042,VALID,19.4623,VALID,17,VALID,0.897892,
2004-08-25, 01:24:00,VALID,918.86,VALID,0,VALID,99.9929,VALID,-0.0679233,VALID,19.4688,VALID,30,VALID,1.00927,
2004-08-25, 01:25:00,VALID,918.843,VALID,0,VALID,99.9708,VALID,-0.0849042,VALID,19.4755,VALID,9,VALID,1.15765,
2004-08-25, 01:26:00,VALID,918.812,VALID,0,VALID,99.9647,VALID,-0.0679233,VALID,19.462,VALID,18,VALID,1.32069,
2004-08-25, 01:27:00,VALID,918.803,VALID,0,VALID,99.9647,VALID,-0.101885,VALID,19.472,VALID,22,VALID,1.24141,
2004-08-25, 01:28:00,VALID,918.784,VALID,0,VALID,99.9743,VALID,-0.0849042,VALID,19.4787,VALID,24,VALID,0.757626,
2004-08-25, 01:29:00,VALID,918.75,VALID,0,VALID,99.9954,VALID,-0.0849042,VALID,19.4814,VALID,29,VALID,0.87314,
2004-08-25, 01:30:00,VALID,918.756,VALID,0,VALID,99.9908,VALID,-0.0849042,VALID,19.4846,VALID,18,VALID,1.39008,
2004-08-25, 01:31:00,VALID,918.755,VALID,0,VALID,99.9746,VALID,-0.0679233,VALID,19.4849,VALID,21,VALID,1.30673,
2004-08-25, 01:32:00,VALID,918.735,VALID,0,VALID,99.9873,VALID,-0.0509425,VALID,19.4911,VALID,16,VALID,1.64501,
2004-08-25, 01:33:00,VALID,918.726,VALID,0,VALID,99.9189,VALID,-0.0509425,VALID,19.4683,VALID,357,VALID,1.008,
2004-08-25, 01:34:00,VALID,918.722,VALID,0,VALID,99.7612,VALID,-0.0679233,VALID,19.4367,VALID,16,VALID,1.03338,
2004-08-25, 01:35:00,VALID,918.712,VALID,0,VALID,99.8884,VALID,-0.0509425,VALID,19.436,VALID,7,VALID,1.03811,
2004-08-25, 01:36:00,VALID,918.712,VALID,0,VALID,99.8375,VALID,-0.0679233,VALID,19.4424,VALID,352,VALID,1.0189,
2004-08-25, 01:37:00,VALID,918.714,VALID,0,VALID,99.8146,VALID,-0.0849042,VALID,19.4424,VALID,3,VALID,0.714208,
2004-08-25, 01:38:00,VALID,918.703,VALID,0,VALID,99.7892,VALID,-0.0849042,VALID,19.4529,VALID,4,VALID,0.816497,
2004-08-25, 01:39:00,VALID,918.703,VALID,0,VALID,99.7904,VALID,-0.0509425,VALID,19.429,VALID,16,VALID,0.0588663,
2004-08-25, 01:40:00,VALID,918.69,VALID,0,VALID,99.7434,VALID,-0.0679233,VALID,19.4397,VALID,16,VALID,0.100142,
2004-08-25, 01:41:00,VALID,918.688,VALID,0,VALID,99.7319,VALID,-0.0509425,VALID,19.433,VALID,79,VALID,0.406605,
2004-08-25, 01:42:00,VALID,918.661,VALID,0,VALID,99.7002,VALID,-0.0339617,VALID,19.4198,VALID,98,VALID,0.501367,
2004-08-25, 01:43:00,VALID,918.648,VALID,0,VALID,99.826,VALID,-0.0849042,VALID,19.4325,VALID,35,VALID,0.331931,
2004-08-25, 01:44:00,VALID,918.635,VALID,0,VALID,99.8235,VALID,-0.0849042,VALID,19.4327,VALID,33,VALID,0.158458,
2004-08-25, 01:45:00,VALID,918.617,VALID,0,VALID,99.8362,VALID,-0.0679233,VALID,19.436,VALID,25,VALID,1.01349,
2004-08-25, 01:46:00,VALID,918.614,VALID,0,VALID,99.8032,VALID,-0.0509425,VALID,19.4265,VALID,22,VALID,0.188953,
2004-08-25, 01:47:00,VALID,918.615,VALID,0,VALID,99.8934,VALID,-0.0509425,VALID,19.4394,VALID,38,VALID,0.110352,
2004-08-25, 01:48:00,VALID,918.618,VALID,0,VALID,99.9354,VALID,-0.0509425,VALID,19.4427,VALID,14,VALID,0.438802,
2004-08-25, 01:49:00,VALID,918.638,VALID,0,VALID,99.9634,VALID,-0.0169808,VALID,19.4489,VALID,13,VALID,0.0951705,
2004-08-25, 01:50:00,VALID,918.624,VALID,0,VALID,99.9781,VALID,-0.0509425,VALID,19.4355,VALID,13,VALID,0.205983,
2004-08-25, 01:51:00,VALID,918.621,VALID,0,VALID,99.9715,VALID,-0.0339617,VALID,19.4688,VALID,42,VALID,0.390092,
2004-08-25, 01:52:00,VALID,918.633,VALID,0,VALID,99.8922,VALID,-0.0339617,VALID,19.4521,VALID,68,VALID,0.077939,
2004-08-25, 01:53:00,VALID,918.637,VALID,0,VALID,99.8871,VALID,-0.0169808,VALID,19.4327,VALID,169,VALID,0.472561,
2004-08-25, 01:54:00,VALID,918.621,VALID,0,VALID,99.8248,VALID,-0.0679233,VALID,19.4203,VALID,70,VALID,0.61843,
2004-08-25, 01:55:00,VALID,918.624,VALID,0.2,VALID,99.8032,VALID,-0.0339617,VALID,19.3878,VALID,142,VALID,0.542259,
2004-08-25, 01:56:00,VALID,918.591,VALID,0,VALID,99.821,VALID,-0.0169808,VALID,19.3813,VALID,236,VALID,0.621911,
2004-08-25, 01:57:00,VALID,918.575,VALID,0,VALID,99.8375,VALID,-0.0849042,VALID,19.3781,VALID,272,VALID,0.363653,
2004-08-25, 01:58:00,VALID,918.557,VALID,0,VALID,99.737,VALID,-0.0169808,VALID,19.3488,VALID,264,VALID,0.59233,
2004-08-25, 01:59:00,VALID,918.545,VALID,0,VALID,99.4242,VALID,-0.0679233,VALID,19.2971,VALID,252,VALID,0.594336,
2004-08-25, 02:00:00,VALID,918.533,VALID,0,VALID,99.4611,VALID,-0.0509425,VALID,19.2808,VALID,303,VALID,0.233613,
2004-08-25, 02:01:00,VALID,918.519,VALID,0,VALID,99.4217,VALID,-0.0509425,VALID,19.2877,VALID,247,VALID,0.0243056,
2004-08-25, 02:02:00,VALID,918.492,VALID,0,VALID,99.4077,VALID,-0.0339617,VALID,19.2713,VALID,280,VALID,0.463728,
2004-08-25, 02:03:00,VALID,918.479,VALID,0.2,VALID,99.4026,VALID,-0.0339617,VALID,19.2517,VALID,349,VALID,0.685826,
2004-08-25, 02:04:00,VALID,918.443,VALID,0,VALID,99.47,VALID,-0.0339617,VALID,19.2683,VALID,19,VALID,0.76029,
2004-08-25, 02:05:00,VALID,918.401,VALID,0,VALID,99.3072,VALID,-0.0169808,VALID,19.2363,VALID,298,VALID,0.774891,
2004-08-25, 02:06:00,VALID,918.358,VALID,0.2,VALID,99.4331,VALID,-0.0169808,VALID,19.2199,VALID,27,VALID,0.576079,
2004-08-25, 02:07:00,VALID,918.298,VALID,0,VALID,99.545,VALID,-0.0339617,VALID,19.2264,VALID,9,VALID,0.898611,
2004-08-25, 02:08:00,VALID,918.243,VALID,0,VALID,99.4853,VALID,-0.0339617,VALID,19.2038,VALID,21,VALID,0.867188,
2004-08-25, 02:09:00,VALID,918.218,VALID,0.2,VALID,99.6531,VALID,-0.0339617,VALID,19.1906,VALID,354,VALID,0.877951,
2004-08-25, 02:10:00,VALID,918.211,VALID,0,VALID,99.7002,VALID,0,VALID,19.1874,VALID,11,VALID,0.665625,
2004-08-25, 02:11:00,VALID,918.193,VALID,0.2,VALID,99.7955,VALID,-0.0169808,VALID,19.1938,VALID,5,VALID,0.544398,
2004-08-25, 02:12:00,VALID,918.171,VALID,0,VALID,99.8693,VALID,0,VALID,19.1938,VALID,25,VALID,1.2487,
2004-08-25, 02:13:00,VALID,918.148,VALID,0.2,VALID,99.9049,VALID,0,VALID,19.1871,VALID,26,VALID,1.38337,
2004-08-25, 02:14:00,VALID,918.132,VALID,0.2,VALID,99.9583,VALID,-0.0169808,VALID,19.1908,VALID,24,VALID,1.07533,
2004-08-25, 02:15:00,VALID,918.134,VALID,0.2,VALID,99.973,VALID,0.0169808,VALID,19.171,VALID,18,VALID,1.18407,
2004-08-25, 02:16:00,VALID,918.125,VALID,0,VALID,100,VALID,0,VALID,19.1708,VALID,22,VALID,1.13281,
2004-08-25, 02:17:00,VALID,918.145,VALID,0.2,VALID,100,VALID,0,VALID,19.1812,VALID,57,VALID,0.43125,
2004-08-25, 02:18:00,VALID,918.135,VALID,0,VALID,99.9893,VALID,0,VALID,19.1648,VALID,64,VALID,0.852121,
2004-08-25, 02:19:00,VALID,918.137,VALID,0.2,VALID,99.9588,VALID,0.0169808,VALID,19.129,VALID,348,VALID,1.13045,
2004-08-25, 02:20:00,VALID,918.133,VALID,0,VALID,99.9112,VALID,0,VALID,19.1002,VALID,3,VALID,0.304315,
2004-08-25, 02:21:00,VALID,918.095,VALID,0.6,VALID,99.8896,VALID,0.0169808,VALID,19.0771,VALID,63,VALID,0.586483,
2004-08-25, 02:22:00,VALID,918.089,VALID,0.4,VALID,100,VALID,0,VALID,19.0841,VALID,23,VALID,0.474516,
2004-08-25, 02:23:00,VALID,918.057,VALID,0.6,VALID,100,VALID,0,VALID,19.0873,VALID,32,VALID,0.870999,
2004-08-25, 02:24:00,VALID,918.012,VALID,0.2,VALID,100,VALID,0,VALID,19.0741,VALID,24,VALID,1.03574,
2004-08-25, 02:25:00,VALID,918.033,VALID,0.2,VALID,100,VALID,0.0169808,VALID,19.0578,VALID,5,VALID,0.421875,
2004-08-25, 02:26:00,VALID,918.041,VALID,0.2,VALID,100,VALID,0.0169808,VALID,19.0389,VALID,325,VALID,0.974019,
2004-08-25, 02:27:00,VALID,918.065,VALID,0,VALID,100,VALID,0,VALID,19.0197,VALID,26,VALID,0.315799,
2004-08-25, 02:28:00,VALID,918.074,VALID,0.2,VALID,100,VALID,0,VALID,19.0168,VALID,16,VALID,0.51543,
2004-08-25, 02:29:00,VALID,918.026,VALID,0,VALID,100,VALID,-0.0169808,VALID,18.9775,VALID,91,VALID,0.885901,
2004-08-25, 02:30:00,VALID,918.018,VALID,0.2,VALID,100,VALID,-0.0169808,VALID,18.9748,VALID,41,VALID,0.873326,
2004-08-25, 02:31:00,VALID,918.012,VALID,0,VALID,100,VALID,0,VALID,18.9619,VALID,11,VALID,0.677507,
2004-08-25, 02:32:00,VALID,918.001,VALID,0,VALID,100,VALID,0,VALID,18.9619,VALID,12,VALID,0.938953,
2004-08-25, 02:33:00,VALID,917.992,VALID,0,VALID,100,VALID,-0.0169808,VALID,18.9552,VALID,18,VALID,1.49023,
2004-08-25, 02:34:00,VALID,917.997,VALID,0.2,VALID,100,VALID,0,VALID,18.9586,VALID,19,VALID,1.81765,
2004-08-25, 02:35:00,VALID,918.003,VALID,0,VALID,100,VALID,-0.0169808,VALID,18.9586,VALID,19,VALID,1.28871,
2004-08-25, 02:36:00,VALID,917.992,VALID,0,VALID,100,VALID,-0.0339617,VALID,18.9716,VALID,22,VALID,1.4209,
2004-08-25, 02:37:00,VALID,917.984,VALID,0,VALID,100,VALID,-0.0339617,VALID,18.9907,VALID,21,VALID,1.63081,
2004-08-25, 02:38:00,VALID,917.959,VALID,0,VALID,100,VALID,-0.0339617,VALID,18.987,VALID,21,VALID,1.32378,
2004-08-25, 02:39:00,VALID,917.97,VALID,0.2,VALID,100,VALID,0,VALID,19.0071,VALID,23,VALID,0.968945,
2004-08-25, 02:40:00,VALID,917.947,VALID,0,VALID,100,VALID,0,VALID,19.0001,VALID,48,VALID,0.527539,
2004-08-25, 02:41:00,VALID,917.934,VALID,0,VALID,100,VALID,0,VALID,18.984,VALID,130,VALID,0.52066,
2004-08-25, 02:42:00,VALID,917.952,VALID,0.2,VALID,100,VALID,0,VALID,19.0038,VALID,11,VALID,0.793713,
2004-08-25, 02:43:00,VALID,917.908,VALID,0,VALID,100,VALID,0.0169808,VALID,19.0101,VALID,48,VALID,0.719939,
2004-08-25, 02:44:00,VALID,917.877,VALID,0,VALID,100,VALID,0,VALID,18.9999,VALID,12,VALID,1.82347,
2004-08-25, 02:45:00,VALID,917.857,VALID,0,VALID,100,VALID,0.0169808,VALID,19.0001,VALID,11,VALID,1.44364,
2004-08-25, 02:46:00,VALID,917.813,VALID,0,VALID,100,VALID,0,VALID,19.0066,VALID,33,VALID,1.27468,
2004-08-25, 02:47:00,VALID,917.794,VALID,0.2,VALID,100,VALID,-0.0169808,VALID,18.9969,VALID,3,VALID,1.20198,
2004-08-25, 02:48:00,VALID,917.81,VALID,0,VALID,100,VALID,0,VALID,18.981,VALID,33,VALID,1.88408,
2004-08-25, 02:49:00,VALID,917.835,VALID,0,VALID,100,VALID,0.0169808,VALID,18.987,VALID,341,VALID,1.01786,
2004-08-25, 02:50:00,VALID,917.827,VALID,0,VALID,100,VALID,0,VALID,18.9745,VALID,126,VALID,0.972202,
2004-08-25, 02:51:00,VALID,917.792,VALID,0,VALID,100,VALID,0.0169808,VALID,18.981,VALID,358,VALID,0.893787,
2004-08-25, 02:52:00,VALID,917.776,VALID,0,VALID,100,VALID,0,VALID,18.9812,VALID,22,VALID,2.07552,
2004-08-25, 02:53:00,VALID,917.788,VALID,0,VALID,100,VALID,0,VALID,18.9584,VALID,39,VALID,0.990734,
2004-08-25, 02:54:00,VALID,917.789,VALID,0.2,VALID,100,VALID,0,VALID,18.9584,VALID,83,VALID,0.798633,
2004-08-25, 02:55:00,VALID,917.799,VALID,0,VALID,100,VALID,0,VALID,18.9291,VALID,29,VALID,1.02134,
2004-08-25, 02:56:00,VALID,917.771,VALID,0,VALID,100,VALID,0,VALID,18.9234,VALID,72,VALID,0.708757,
2004-08-25, 02:57:00,VALID,917.785,VALID,0,VALID,100,VALID,-0.0169808,VALID,18.9167,VALID,40,VALID,0.883539,
2004-08-25, 02:58:00,VALID,917.788,VALID,0,VALID,100,VALID,-0.0169808,VALID,18.9001,VALID,48,VALID,1.59542,
2004-08-25, 02:59:00,VALID,917.765,VALID,0,VALID,100,VALID,0,VALID,18.8809,VALID,144,VALID,1.45367,
2004-08-25, 03:00:00,VALID,917.817,VALID,0,VALID,100,VALID,-0.0169808,VALID,18.8809,VALID,213,VALID,0.736793,
2004-08-25, 03:01:00,VALID,917.787,VALID,0,VALID,100,VALID,0,VALID,18.8618,VALID,98,VALID,0.857515,
2004-08-25, 03:02:00,VALID,917.78,VALID,0,VALID,100,VALID,-0.0169808,VALID,18.8678,VALID,8,VALID,0.741493,
2004-08-25, 03:03:00,VALID,917.785,VALID,0.2,VALID,100,VALID,0,VALID,18.8871,VALID,3,VALID,0.598899,
2004-08-25, 03:04:00,VALID,917.787,VALID,0,VALID,100,VALID,0,VALID,18.8909,VALID,17,VALID,1.0129,
2004-08-25, 03:05:00,VALID,917.796,VALID,0,VALID,100,VALID,0,VALID,18.8936,VALID,179,VALID,0.833854,
2004-08-25, 03:06:00,VALID,917.802,VALID,0,VALID,100,VALID,0.0169808,VALID,18.8876,VALID,243,VALID,0.292597,
2004-08-25, 03:07:00,VALID,917.781,VALID,0,VALID,100,VALID,0,VALID,18.8747,VALID,122,VALID,0.314977,
2004-08-25, 03:08:00,VALID,917.78,VALID,0,VALID,100,VALID,-0.0169808,VALID,18.8646,VALID,165,VALID,1.08236,
2004-08-25, 03:09:00,VALID,917.795,VALID,0,VALID,100,VALID,0.0169808,VALID,18.8715,VALID,48,VALID,1.51542,
2004-08-25, 03:10:00,VALID,917.816,VALID,0,VALID,100,VALID,0,VALID,18.8874,VALID,350,VALID,1.19922,
2004-08-25, 03:11:00,VALID,917.802,VALID,0,VALID,100,VALID,-0.0339617,VALID,18.8943,VALID,301,VALID,1.03367,
2004-08-25, 03:12:00,VALID,917.81,VALID,0,VALID,100,VALID,-0.0169808,VALID,18.8973,VALID,358,VALID,1.25139,
2004-08-25, 03:13:00,VALID,917.812,VALID,0,VALID,100,VALID,-0.0169808,VALID,18.9107,VALID,352,VALID,1.73828,
2004-08-25, 03:14:00,VALID,917.833,VALID,0,VALID,100,VALID,-0.0169808,VALID,18.9072,VALID,293,VALID,1.52734,
2004-08-25, 03:15:00,VALID,917.874,VALID,0,VALID,100,VALID,0,VALID,18.9068,VALID,298,VALID,0.985417,
2004-08-25, 03:16:00,VALID,917.872,VALID,0,VALID,100,VALID,0,VALID,18.8936,VALID,38,VALID,1.03049,
2004-08-25, 03:17:00,VALID,917.884,VALID,0,VALID,100,VALID,0.0169808,VALID,18.91,VALID,22,VALID,0.686928,
2004-08-25, 03:18:00,VALID,917.897,VALID,0,VALID,100,VALID,0,VALID,18.9132,VALID,218,VALID,0.791101,
2004-08-25, 03:19:00,VALID,917.919,VALID,0,VALID,100,VALID,0.0169808,VALID,18.8946,VALID,68,VALID,0.559411,
2004-08-25, 03:20:00,VALID,917.923,VALID,0,VALID,100,VALID,0,VALID,18.8846,VALID,9,VALID,0.551339,
2004-08-25, 03:21:00,VALID,917.924,VALID,0,VALID,100,VALID,0,VALID,18.8876,VALID,39,VALID,0.781072,
2004-08-25, 03:22:00,VALID,917.947,VALID,0,VALID,100,VALID,0,VALID,18.8973,VALID,11,VALID,1.27266,
2004-08-25, 03:23:00,VALID,917.946,VALID,0,VALID,100,VALID,-0.0169808,VALID,18.9005,VALID,15,VALID,1.62376,
2004-08-25, 03:24:00,VALID,917.955,VALID,0,VALID,100,VALID,0,VALID,18.9072,VALID,33,VALID,0.773633,
2004-08-25, 03:25:00,VALID,917.987,VALID,0,VALID,100,VALID,0,VALID,18.9005,VALID,17,VALID,0.767493,
2004-08-25, 03:26:00,VALID,917.998,VALID,0,VALID,100,VALID,-0.0169808,VALID,18.9139,VALID,167,VALID,0.307106,
2004-08-25, 03:27:00,VALID,918.002,VALID,0,VALID,100,VALID,0,VALID,18.9107,VALID,128,VALID,0.518924,
2004-08-25, 03:28:00,VALID,918.031,VALID,0,VALID,100,VALID,-0.0339617,VALID,18.904,VALID,148,VALID,0.606286,
2004-08-25, 03:29:00,VALID,918.027,VALID,0,VALID,100,VALID,0,VALID,18.9368,VALID,23,VALID,0.717507,
2004-08-25, 03:30:00,VALID,918.04,VALID,0,VALID,100,VALID,-0.0339617,VALID,18.9328,VALID,20,VALID,0.684411,
2004-08-25, 03:31:00,VALID,918.038,VALID,0,VALID,100,VALID,0,VALID,18.9492,VALID,16,VALID,0.282203,
2004-08-25, 03:32:00,VALID,918.043,VALID,0,VALID,100,VALID,0,VALID,18.9656,VALID,16,VALID,0.272347,
2004-08-25, 03:33:00,VALID,918.042,VALID,0,VALID,100,VALID,0,VALID,18.9718,VALID,22,VALID,1.05952,
2004-08-25, 03:34:00,VALID,918.056,VALID,0,VALID,100,VALID,-0.0169808,VALID,18.9716,VALID,8,VALID,0.681055,
2004-08-25, 03:35:00,VALID,918.011,VALID,0,VALID,100,VALID,0.0169808,VALID,18.9748,VALID,53,VALID,1.16461,
2004-08-25, 03:36:00,VALID,917.995,VALID,0.2,VALID,100,VALID,-0.0169808,VALID,18.9716,VALID,38,VALID,1.50874,
2004-08-25, 03:37:00,VALID,918.007,VALID,0,VALID,100,VALID,0,VALID,18.9914,VALID,27,VALID,0.900484,
2004-08-25, 03:38:00,VALID,917.987,VALID,0,VALID,100,VALID,0,VALID,18.9905,VALID,25,VALID,1.02344,